Wind_Speed
11 10 9 9 9 9 7 8 8 9 10 11 12 13 12 14 16 15 16 15 15 15 11 12 16 16 16 16 16 17 18 18 17 16 17 17 17 17 17 16 17 17 16 17 17 18 17 17 17 19 18 17 18 17 16 15 14 14 15 15 16 16 16 16 16 16 17 17 18 18 17 16 17 17 17 17 17 16 16 16 15 16 15 15 15
14 13 11 10 11 9 8 8 8 9 10 11 12 13 13 14 15 15 15 14 15 14 11 13 15 16 16 16 16 16 17 17 17 17 17 17 17 17 17 17 17 17 16 16 17 18 18 16 17 18 17 17 18 18 17 16 15 14 14 14 15 15 15 15 16 16 17 18 18 18 18 16 17 17 17 17 16 16 16 15 14 15 15 14 15
16 15 11 11 12 10 8 9 9 10 11 12 13 13 13 14 13 14 14 13 14 12 11 14 16 16 17 16 16 16 17 17 17 18 17 17 17 17 17 17 17 17 16 16 17 18 18 17 18 17 16 16 18 19 18 16 16 15 15 14 14 15 15 15 15 15 16 18 18 18 17 16 16 16 16 16 16 15 15 14 14 15 15 14 14
16 15 13 12 12 11 9 9 10 11 11 12 13 13 13 13 13 14 12 12 13 11 12 15 17 17 18 18 18 18 18 17 17 17 17 17 17 17 17 17 17 17 16 17 18 17 18 18 19 17 16 16 17 18 17 16 15 15 16 14 13 14 14 15 15 15 15 16 17 17 16 16 16 15 15 15 15 15 14 15 14 15 15 14 14
17 15 14 12 11 13 11 9 10 11 11 12 13 13 13 13 13 13 11 10 12 11 12 16 17 17 18 18 19 18 18 17 17 16 16 16 17 18 17 16 17 17 17 17 18 18 18 19 19 17 15 15 17 18 17 16 15 16 16 15 14 15 15 15 15 15 15 16 16 16 15 15 15 14 14 14 14 14 14 14 14 14 14 13 14
16 15 15 14 11 12 11 10 10 10 11 11 12 12 12 13 12 12 11 8 10 12 13 16 17 17 18 18 18 17 17 17 16 15 15 15 16 17 16 16 16 17 18 17 18 18 18 18 17 16 15 13 15 17 18 16 15 16 16 15 15 15 15 15 14 15 15 15 15 14 13 13 14 14 13 13 13 13 13 13 13 13 13 13 13
15 14 15 14 13 12 11 10 10 10 10 10 11 11 11 13 12 11 10 9 9 12 13 16 17 17 17 17 17 16 16 16 15 15 15 15 15 15 15 16 15 16 17 17 18 18 18 18 16 15 15 12 13 16 17 16 15 15 14 14 14 14 14 13 13 14 14 13 13 12 12 12 13 13 12 12 12 12 12 12 11 11 12 12 12
13 13 13 14 13 12 12 10 10 10 10 10 10 11 11 11 12 11 10 10 10 12 13 14 16 16 17 17 16 16 15 15 15 14 14 15 15 15 15 15 15 15 16 16 17 18 17 17 16 15 13 11 13 15 16 17 16 14 13 13 13 12 12 12 12 12 12 12 11 11 11 11 12 12 11 11 11 11 11 11 11 10 11 11 11
13 12 13 13 13 13 12 11 10 10 10 10 10 10 11 10 11 11 11 11 11 12 13 13 15 15 16 17 16 15 14 15 14 14 13 13 14 14 14 14 15 15 15 16 16 17 16 15 16 15 12 10 12 13 15 16 15 14 13 11 11 11 11 11 11 11 11 10 10 10 10 11 11 12 11 10 11 10 10 10 10 10 10 10 10
12 12 13 12 13 12 12 12 11 12 11 11 11 11 12 12 12 12 11 11 12 12 13 13 14 14 15 16 15 15 14 14 14 14 13 13 13 13 13 13 14 14 15 16 16 16 15 15 15 14 11 9 11 12 14 14 14 14 12 10 10 10 10 9 10 10 10 10 10 10 10 10 10 11 11 10 10 10 10 9 10 10 9 9 9
12 12 12 11 12 12 11 11 10 11 11 10 11 12 12 12 12 12 10 11 12 12 13 13 13 14 14 15 14 14 14 14 14 14 13 12 12 13 13 13 14 14 14 15 15 15 15 14 14 13 11 9 11 12 13 13 13 13 12 11 10 9 9 9 8 9 9 9 9 9 9 9 9 11 10 10 10 10 10 9 9 9 9 9 9
11 12 12 11 11 11 10 9 8 8 8 8 9 10 9 9 10 10 10 10 11 11 12 12 12 14 14 13 13 14 14 13 13 14 13 11 11 12 13 13 13 13 14 14 14 14 14 14 13 12 10 10 11 11 11 12 12 12 11 11 11 10 9 8 8 8 8 8 8 8 8 8 9 10 10 10 9 9 8 8 8 8 8 8 7
11 12 11 11 10 10 9 8 7 6 6 7 7 8 7 7 8 9 10 9 10 10 11 11 11 13 13 13 12 13 14 13 13 13 12 11 11 12 13 13 13 13 14 14 14 13 13 13 12 11 10 10 10 10 10 10 11 11 11 11 11 10 9 8 7 7 7 7 7 7 7 8 9 9 9 9 8 8 8 8 8 8 8 7 6
12 12 11 11 10 10 8 7 6 5 6 6 6 7 7 7 7 8 9 9 10 11 11 10 10 11 12 12 11 12 13 13 13 13 12 10 10 11 11 12 12 13 14 13 13 12 12 12 11 10 10 10 9 9 9 9 10 11 11 11 10 10 9 7 7 7 6 6 6 6 6 7 8 8 7 7 7 7 8 8 8 8 8 8 6
13 12 11 10 10 10 8 6 5 5 4 5 5 6 6 7 7 8 8 9 10 11 10 10 10 10 11 11 11 11 11 11 12 13 12 10 11 10 11 11 12 13 13 13 12 11 11 11 11 10 10 10 10 9 9 9 10 11 10 9 9 9 9 7 6 6 5 5 5 5 6 6 6 6 5 5 6 6 7 7 7 7 7 8 8
12 12 11 10 10 9 8 5 5 4 4 4 4 5 5 5 7 7 8 8 9 10 11 10 10 10 11 11 11 10 9 10 11 13 12 10 10 10 11 11 12 12 12 12 11 10 10 10 10 10 10 10 10 9 8 8 9 9 9 8 8 8 9 8 6 5 4 4 4 4 5 4 4 4 4 4 5 5 6 6 6 6 6 6 7
11 11 10 10 9 9 7 5 5 5 5 4 4 5 6 6 6 6 7 8 8 9 12 11 9 10 11 11 12 11 10 9 10 12 11 10 10 10 11 11 11 12 11 11 10 9 9 9 9 10 10 10 9 8 8 7 7 8 7 7 7 7 9 8 5 4 3 3 3 3 4 3 2 3 3 4 4 4 4 5 5 5 4 5 5
11 10 10 10 9 8 6 5 4 4 4 4 5 5 6 6 6 6 7 7 8 9 12 11 9 10 11 11 13 13 11 10 10 11 10 10 10 10 11 11 11 11 10 10 9 8 7 8 8 9 9 9 8 8 7 7 6 7 7 6 6 6 8 8 6 4 3 2 2 2 2 1 1 2 2 2 3 3 3 3 4 3 3 3 3
10 10 9 9 9 9 6 4 3 3 3 4 5 5 4 5 6 6 6 7 8 9 11 12 10 10 11 12 13 13 11 10 11 10 9 10 10 11 11 11 11 10 9 8 8 8 7 7 7 8 8 8 8 7 6 6 6 6 6 5 5 5 7 7 5 4 3 1 1 1 1 0 2 2 1 1 1 1 2 2 1 1 2 1 2
9 9 8 9 9 9 6 4 3 3 3 4 4 5 4 5 5 6 6 7 8 9 11 12 11 11 11 12 13 13 12 11 11 10 10 11 10 10 11 11 11 10 8 7 8 7 7 7 7 6 7 6 6 6 6 6 6 6 6 5 5 5 5 5 4 4 3 2 2 0 2 2 1 1 0 1 1 0 0 0 1 1 0 1 0
8 8 8 8 9 10 6 4 3 3 2 3 4 5 5 5 5 6 6 7 8 9 11 11 11 11 11 13 13 13 12 11 11 11 10 10 10 10 10 10 10 8 7 7 8 8 7 7 7 6 6 5 5 4 4 5 6 6 6 7 6 5 6 5 4 4 3 4 3 2 3 3 1 1 1 1 2 2 1 1 1 2 2 1 1
9 8 8 8 9 10 7 4 3 3 3 3 4 5 5 5 6 7 7 8 8 9 11 11 11 12 12 13 14 13 12 11 10 11 10 9 10 9 9 9 8 7 7 8 8 8 8 7 7 6 6 5 4 3 4 5 6 7 7 8 7 6 8 7 5 5 4 4 4 4 4 3 2 2 2 2 2 2 2 2 1 2 2 2 1
9 9 8 8 9 10 8 5 3 4 4 4 5 5 5 5 6 7 9 10 9 9 10 11 11 12 12 13 14 13 12 11 10 11 10 9 9 8 8 8 7 7 7 7 7 7 7 7 7 6 5 4 3 3 4 5 6 7 8 7 7 8 10 10 7 5 5 5 5 5 5 4 3 1 2 3 1 2 3 3 3 2 2 2 2
9 9 9 8 8 10 8 6 4 4 4 4 4 6 6 6 6 8 9 10 10 10 10 11 10 10 11 13 14 13 12 11 10 10 9 9 8 8 8 7 7 7 6 6 7 8 8 7 6 4 4 3 3 3 4 5 6 6 7 6 7 9 10 10 8 6 6 6 6 6 4 4 4 2 2 3 2 3 3 4 4 3 2 2 3
9 8 9 8 8 9 8 6 5 4 4 4 5 6 6 6 6 8 8 9 10 10 10 11 10 9 10 12 14 14 12 11 11 10 8 8 8 8 7 7 7 6 6 7 8 8 8 7 6 4 3 3 3 3 4 5 6 6 7 7 8 9 9 10 10 8 8 7 6 6 4 4 4 3 1 2 3 3 4 4 5 5 4 3 3
9 9 9 9 8 8 7 7 5 5 5 4 5 7 6 5 6 8 8 9 9 11 12 10 9 9 10 12 14 13 12 11 11 9 8 8 7 6 6 6 6 6 7 8 8 9 8 7 6 5 4 4 3 4 5 6 7 7 8 9 11 11 10 10 11 10 9 8 6 5 4 4 4 3 2 2 3 4 5 5 6 6 5 4 5
9 9 9 9 9 8 7 7 5 5 5 4 5 7 7 6 7 8 8 9 9 10 10 9 9 10 11 12 13 12 11 10 10 9 8 7 6 5 5 6 7 8 9 9 9 9 8 7 6 5 4 4 4 5 6 7 7 7 8 9 11 11 11 10 10 10 9 8 6 5 4 4 4 3 2 2 3 5 6 6 6 7 6 6 6
9 10 9 9 10 9 8 7 6 5 5 4 5 6 7 8 7 7 8 9 9 8 7 7 9 10 11 12 12 12 11 10 9 9 8 7 5 5 6 7 8 9 10 10 9 8 8 6 5 5 5 5 6 7 8 9 8 8 7 8 9 9 10 10 10 9 9 7 6 5 4 3 3 3 2 2 3 5 6 6 7 7 6 5 5
10 10 10 9 10 10 9 7 6 5 5 5 4 5 6 7 8 7 8 9 8 7 8 9 10 10 11 12 12 11 11 9 9 8 7 6 5 6 7 8 9 10 10 9 8 7 6 6 6 6 6 7 8 9 11 11 9 8 8 8 8 8 8 8 8 8 7 6 4 4 3 3 2 2 2 2 3 5 5 6 7 6 6 5 5
10 10 10 10 10 10 9 8 7 6 5 5 5 5 6 7 8 9 9 9 9 9 10 11 11 11 11 12 11 10 9 9 8 7 6 6 7 8 8 9 9 9 9 7 7 7 6 6 6 7 8 9 10 12 13 12 9 7 8 8 7 6 6 7 7 6 5 4 3 3 3 2 2 2 2 2 2 4 4 5 5 5 5 5 4
10 10 10 10 10 11 10 9 8 7 5 5 5 6 6 7 9 10 10 10 10 11 11 11 11 11 11 11 10 9 9 8 7 7 6 7 8 8 9 9 9 8 7 7 6 7 7 6 7 7 9 10 11 13 13 13 10 8 7 7 6 5 5 6 5 5 4 4 4 3 3 2 2 2 2 2 2 2 3 3 3 3 3 3 3
10 11 10 10 11 11 10 10 9 8 7 5 6 6 7 7 8 9 10 11 11 11 11 10 11 11 11 10 9 9 9 8 8 7 8 8 8 9 9 8 7 6 6 6 6 7 7 7 7 8 9 11 12 13 13 12 10 8 7 6 5 4 4 5 4 4 4 4 4 4 3 3 2 2 2 2 2 2 2 2 2 1 2 2 3
10 10 11 11 11 11 11 10 10 9 8 7 7 7 7 8 8 8 9 10 10 10 10 10 10 10 10 10 9 9 9 9 9 9 9 9 9 10 8 7 6 6 6 6 7 7 7 7 7 8 9 11 10 11 11 9 8 8 6 5 4 4 3 4 4 4 4 4 4 4 3 3 3 3 2 2 2 2 2 1 1 1 1 2 3
10 11 12 12 11 11 11 11 10 9 9 8 7 7 7 8 8 8 9 9 9 9 10 10 10 10 10 10 10 10 10 10 10 10 10 10 9 9 7 6 5 5 5 6 6 6 7 7 7 8 9 9 9 9 11 8 7 7 6 4 4 3 3 3 3 3 4 4 4 4 4 4 4 4 3 2 2 1 1 1 0 0 1 2 3
11 12 12 13 12 11 11 11 11 10 10 9 8 7 7 7 8 8 9 9 9 9 9 9 9 9 9 10 10 10 10 10 9 9 9 9 8 6 6 5 4 5 5 5 5 6 7 7 8 8 8 8 8 9 11 9 7 7 7 5 4 4 4 4 3 3 3 3 3 3 3 4 4 4 4 3 2 1 1 1 0 0 1 2 3
12 12 13 13 12 12 11 11 11 11 10 10 9 8 7 7 7 8 10 10 10 9 8 8 8 9 9 9 10 10 9 9 9 9 9 8 7 5 4 4 4 4 5 5 5 5 6 7 8 9 9 10 9 9 10 9 7 7 6 5 4 5 5 5 5 4 3 3 3 2 2 2 3 4 4 3 2 1 1 0 0 1 1 2 3
13 13 13 13 12 12 12 12 12 11 10 11 11 10 9 8 7 9 11 11 10 9 9 9 9 9 9 9 9 9 8 8 8 9 8 7 6 4 3 3 4 4 4 5 4 5 6 6 7 8 9 11 10 9 9 8 6 6 5 4 5 6 6 6 5 4 3 3 3 2 2 2 2 3 3 3 2 1 1 1 1 1 2 3 4
13 14 14 13 12 12 12 12 12 11 11 11 12 11 10 9 8 9 10 10 9 8 9 9 8 8 8 8 9 8 8 8 8 8 7 6 5 4 3 3 3 3 4 4 4 5 5 5 6 7 8 10 9 9 9 8 5 4 3 3 5 6 7 7 5 4 4 4 4 3 3 3 2 2 2 2 2 2 3 3 3 3 3 4 5
12 13 14 13 13 12 13 13 13 13 12 11 12 11 10 10 9 9 9 9 9 9 9 9 8 8 8 8 9 9 8 8 7 7 6 5 4 3 3 2 2 2 3 3 3 4 4 5 6 6 7 8 9 9 9 8 5 3 3 4 6 7 7 8 6 5 5 5 4 3 2 2 2 2 2 2 3 4 5 5 5 6 6 7 8
12 14 15 14 14 13 14 14 13 15 14 12 11 12 11 11 11 10 10 9 9 10 10 9 8 8 8 9 9 9 9 8 7 6 5 4 4 3 2 1 1 1 2 2 3 3 4 5 5 6 7 7 8 8 9 8 4 3 4 4 6 7 7 7 6 5 5 5 4 3 3 3 3 3 3 4 4 5 6 7 7 8 9 9 9
12 15 15 15 15 15 15 15 15 16 17 14 13 13 12 12 12 11 10 9 10 11 10 9 8 8 9 10 10 9 8 7 6 5 4 4 3 3 2 2 1 1 2 3 3 3 4 5 5 5 7 7 7 7 8 7 3 2 3 4 5 6 6 6 5 4 5 5 6 6 5 5 5 5 5 6 6 7 8 8 9 10 11 10 10
13 14 15 15 16 15 15 17 18 18 18 17 15 14 13 13 13 12 10 10 10 10 9 9 8 8 11 11 10 9 8 7 6 4 4 3 2 3 3 3 2 2 3 4 4 4 4 5 5 5 6 6 6 7 7 5 2 2 3 4 5 4 3 3 3 3 4 5 6 7 7 6 6 6 6 6 6 7 7 8 9 10 10 11 11
13 14 14 15 16 16 17 17 19 19 19 18 17 15 13 13 12 11 10 9 10 10 9 10 9 8 10 11 10 9 8 7 6 4 3 3 3 3 3 2 2 3 3 3 3 3 3 4 4 5 5 5 5 6 7 5 3 2 1 2 3 2 2 3 5 5 4 4 5 5 6 6 5 6 6 6 5 5 6 7 8 9 10 11 12
13 15 15 16 16 17 19 19 19 20 19 19 18 16 15 14 12 11 10 9 10 12 11 11 10 9 9 10 10 9 8 7 6 3 2 3 3 3 2 2 3 4 3 3 2 2 3 3 3 5 5 4 4 5 6 5 3 1 1 1 1 1 1 3 5 4 4 4 5 5 5 5 5 5 5 6 6 6 7 8 9 10 10 11 12
15 17 17 17 16 18 20 20 19 20 20 19 18 17 16 14 12 10 10 9 9 10 10 9 10 10 9 9 10 10 9 8 6 4 4 3 3 3 2 3 4 4 3 3 2 2 2 2 3 4 5 5 4 3 4 5 4 3 1 1 1 1 1 4 4 2 3 5 6 6 4 3 3 5 6 7 8 9 10 10 10 10 10 11 12
16 18 18 17 16 18 21 20 20 21 21 20 19 18 17 16 14 11 10 10 9 9 10 10 10 10 9 8 10 11 10 8 7 6 5 4 4 3 3 3 3 3 3 3 2 2 2 2 2 3 4 4 4 3 3 4 4 4 3 2 2 2 2 4 3 2 2 4 5 6 6 4 1 3 5 7 8 8 9 9 9 9 9 9 9
18 17 18 18 18 19 21 21 21 22 22 21 20 19 18 17 16 13 11 11 10 10 11 11 10 10 10 9 10 11 11 10 8 8 7 6 6 5 4 4 3 3 3 3 2 2 1 1 1 2 3 3 4 4 3 3 3 3 3 3 3 3 2 2 3 2 2 2 5 5 6 6 5 3 3 3 4 4 5 6 7 7 6 6 6
18 17 19 20 21 22 22 22 21 23 24 23 22 21 20 18 17 13 12 12 11 10 12 12 11 12 12 11 10 11 13 13 11 10 10 8 7 7 6 5 4 3 3 3 3 3 2 2 2 2 2 3 3 3 4 4 3 2 2 2 3 4 4 2 2 3 2 2 3 4 4 5 5 6 5 4 4 5 6 6 6 5 5 5 5
18 20 22 22 23 24 23 22 22 23 25 24 23 23 22 20 17 14 13 14 12 11 12 12 11 12 12 12 12 11 12 14 14 13 12 10 9 8 7 6 5 4 4 3 4 4 3 3 3 3 2 2 2 2 3 4 3 3 3 2 2 2 3 2 1 1 2 2 2 2 4 3 3 5 6 5 5 6 6 6 6 5 4 4 4
19 21 21 20 23 25 24 23 23 23 25 26 25 24 23 22 19 17 15 15 14 13 13 13 13 13 13 13 12 12 11 13 14 15 15 13 11 10 8 7 6 5 5 5 5 5 5 4 4 4 3 3 2 2 2 2 3 3 3 2 1 1 1 1 1 2 2 2 3 3 3 4 3 4 6 7 6 5 6 6 5 4 4 4 5
18 18 18 19 22 25 25 25 24 24 25 26 26 25 24 23 22 20 18 17 16 15 15 15 15 15 15 14 13 12 12 12 13 15 16 15 14 13 11 9 8 7 6 6 6 5 5 5 5 5 4 3 3 3 2 2 2 2 2 2 1 1 1 1 2 3 3 2 3 4 4 5 5 4 6 7 5 4 5 5 4 4 4 6 7
Wind_Direction
164 169 147 131 117 107 111 122 119 120 121 119 118 119 118 116 118 118 119 124 124 123 135 123 110 110 110 110 110 110 109 109 109 109 107 107 108 106 105 102 100 99 100 101 101 100 98 98 98 97 97 99 99 97 96 94 88 85 87 91 94 95 96 95 95 96 95 95 94 95 94 95 95 94 95 96 96 96 98 98 97 98 98 99 101
159 162 148 133 122 118 131 130 127 129 125 122 118 118 119 117 121 121 120 125 123 125 134 118 109 110 110 111 111 110 110 110 111 110 108 107 108 106 105 103 101 100 100 101 101 101 100 98 94 93 97 101 100 98 97 96 93 89 85 86 90 93 95 94 94 95 95 95 94 94 93 92 92 93 93 93 94 95 96 97 97 99 99 100 100
151 154 147 135 127 131 141 133 134 136 130 124 117 115 113 114 120 119 120 126 123 126 129 115 111 110 110 111 111 112 111 111 110 110 109 107 107 106 106 104 103 103 102 101 100 102 104 101 95 94 97 98 96 94 93 93 95 96 92 87 88 92 94 95 96 96 97 97 95 93 91 90 90 91 92 93 93 93 94 94 93 97 98 99 100
146 148 144 136 132 138 143 136 137 137 131 125 118 114 115 116 116 116 123 130 126 129 129 118 113 111 111 110 111 113 113 112 110 109 108 107 109 109 107 105 106 106 105 104 103 104 102 98 94 93 94 96 97 96 97 98 100 99 96 92 92 96 96 96 98 100 100 99 97 93 92 91 90 91 92 93 93 93 92 92 92 93 95 95 96
144 145 144 141 139 142 143 138 134 135 130 126 121 118 120 116 116 119 123 127 130 138 133 120 114 113 112 111 111 112 112 111 109 108 106 107 111 111 108 105 106 106 105 105 106 103 100 97 95 94 94 98 102 103 104 101 98 95 94 93 94 99 100 98 102 105 104 103 97 94 94 94 93 93 94 94 93 93 92 93 93 93 95 95 93
142 145 146 143 143 142 141 137 132 135 130 124 118 119 122 117 124 126 123 134 142 143 132 119 114 113 113 113 112 112 111 110 108 106 104 105 108 110 108 107 106 105 106 105 104 102 101 102 101 102 101 101 105 107 104 99 94 91 93 93 92 96 99 101 104 107 106 101 93 92 94 96 95 93 93 94 94 93 93 94 95 96 98 97 95
140 144 145 141 141 141 140 137 134 134 130 125 117 117 119 123 130 127 133 153 148 131 119 115 114 113 114 114 114 113 112 110 108 105 104 104 105 108 108 109 108 106 108 108 107 105 104 104 103 104 103 104 107 106 103 99 93 88 89 92 93 95 98 102 104 105 103 94 89 91 92 94 96 96 96 96 96 95 96 96 95 98 99 98 97
139 141 141 138 137 142 141 137 134 133 131 129 123 118 121 128 130 132 147 151 133 117 113 114 114 115 116 115 115 114 113 111 108 106 104 102 104 107 109 112 110 107 109 110 108 107 106 105 105 104 106 111 109 105 104 101 97 92 88 90 94 97 99 101 102 101 96 89 89 90 90 93 97 97 95 97 98 97 98 99 99 99 100 101 99
138 137 139 137 136 140 139 138 136 133 132 131 128 125 129 138 139 145 153 141 125 117 117 117 118 120 121 120 118 117 116 115 111 109 106 105 107 107 110 112 109 107 109 109 106 106 105 104 106 106 108 113 108 104 103 100 99 97 94 93 94 97 98 100 100 96 89 87 88 88 90 92 94 93 91 92 94 95 96 97 99 100 102 101 100
136 137 138 133 135 136 135 139 138 137 140 144 142 138 142 152 152 149 149 137 125 122 122 121 123 124 123 122 121 122 120 119 116 114 112 110 109 109 110 110 109 109 109 108 105 104 103 101 102 103 105 106 102 98 97 97 97 95 93 93 95 97 98 101 99 93 89 88 87 88 91 90 91 92 92 92 92 92 92 93 94 97 99 99 99
135 136 134 131 134 133 134 133 133 138 143 148 142 137 146 154 152 145 140 134 127 125 123 122 125 125 124 123 122 123 120 121 120 116 114 110 110 111 110 109 110 112 109 105 103 102 101 100 99 100 102 102 97 93 92 92 91 91 90 88 90 94 95 97 94 91 89 88 88 88 88 86 89 93 93 90 88 87 87 87 88 91 94 96 97
135 133 132 130 131 131 131 129 131 136 141 146 132 132 145 146 148 147 139 136 131 126 121 121 126 126 125 125 123 122 119 120 120 115 111 109 110 111 111 111 111 110 107 104 102 100 101 101 99 100 102 99 96 95 92 88 88 91 88 79 77 83 87 89 90 90 88 86 88 87 84 81 85 89 91 88 84 84 85 85 85 85 85 89 93
135 132 133 128 128 130 131 131 131 136 147 150 136 135 149 147 147 146 141 141 136 127 121 120 124 127 126 124 124 122 121 122 120 115 111 112 111 110 111 111 112 109 105 103 102 101 101 101 100 100 99 96 95 95 91 86 85 86 81 72 66 69 74 81 86 90 88 86 86 83 80 77 78 79 81 84 84 84 85 85 82 80 76 76 85
135 132 132 128 128 128 124 119 122 150 156 145 138 140 154 157 149 141 145 149 139 130 125 120 118 122 120 119 121 122 126 127 124 119 114 114 111 110 110 109 109 107 105 103 103 103 100 100 100 99 98 96 94 93 89 83 76 74 74 68 59 56 62 75 84 89 89 87 87 81 76 73 72 72 73 79 83 85 86 83 79 77 74 68 72
135 134 132 126 124 119 112 116 143 167 139 124 140 150 160 167 158 147 152 154 140 132 127 120 114 108 106 108 115 121 128 131 128 124 119 116 115 116 113 110 108 108 109 107 106 104 101 101 100 97 95 95 94 92 89 82 72 69 70 64 54 50 54 70 85 90 91 90 90 83 74 74 75 75 70 74 85 90 89 86 82 78 74 69 68
135 134 130 123 119 113 117 142 170 160 124 129 166 167 164 177 173 158 155 155 142 134 124 116 117 114 114 118 121 125 132 133 129 126 122 120 122 122 117 113 112 112 113 112 109 106 103 103 99 96 92 91 92 92 89 82 74 70 70 63 53 47 48 62 81 85 89 91 92 85 73 75 81 75 57 68 92 94 90 89 87 82 80 78 73
137 135 130 125 117 113 130 166 182 165 141 142 180 174 162 170 171 162 162 160 148 131 118 121 135 133 134 135 131 133 137 134 131 128 124 125 128 127 121 116 114 113 112 109 107 106 106 106 103 100 97 94 93 89 84 80 77 74 70 60 52 46 45 55 69 73 82 89 85 81 77 85 87 74 58 78 98 92 90 89 86 86 84 85 82
139 134 129 126 118 114 134 177 190 172 149 157 175 164 161 165 160 164 165 160 151 128 118 132 148 139 136 135 132 134 135 137 136 132 131 132 132 130 125 119 116 113 109 106 106 108 109 111 110 106 103 100 95 88 80 74 72 70 63 54 49 42 38 46 56 54 57 69 71 73 73 111 109 84 73 88 107 100 92 83 84 89 87 85 81
137 130 127 122 117 113 126 180 184 141 152 181 172 150 158 166 161 165 163 157 145 127 126 138 147 139 134 134 134 133 134 140 140 140 139 134 132 129 125 120 115 110 107 106 108 110 110 115 118 114 109 104 98 90 81 73 67 60 56 47 41 35 30 34 37 35 39 29 34 71 17 344 100 96 70 53 101 131 120 105 116 128 113 98 64
132 129 126 121 119 115 127 185 170 124 160 181 157 146 153 164 167 159 157 151 128 127 136 136 141 143 137 137 138 137 138 140 141 146 141 131 129 127 123 118 112 110 110 107 106 107 111 119 124 124 123 117 105 93 81 68 56 44 41 31 21 18 13 11 9 12 17 351 343 319 321 335 70 107 80 339 337 321 204 178 222 192 161 230 50
133 132 128 123 121 118 136 197 170 135 181 188 159 156 148 158 167 154 155 141 124 139 143 133 140 143 140 141 142 142 138 140 143 140 133 127 126 123 121 115 111 111 108 104 103 104 109 118 125 131 138 131 108 88 70 55 41 26 19 14 12 3 354 353 348 348 347 342 336 295 313 334 341 327 326 325 0 16 12 26 55 83 64 40 105
138 135 128 127 124 123 141 188 180 154 188 199 171 164 147 153 160 151 146 129 132 152 142 137 145 143 143 144 144 145 139 139 137 128 127 127 123 123 120 114 111 108 102 103 105 106 107 114 125 131 135 126 105 75 43 30 18 7 2 5 11 3 354 353 343 333 330 333 327 311 320 323 319 333 335 345 13 349 350 9 17 49 40 35 29
142 136 130 132 129 129 142 166 175 162 177 193 173 159 146 150 150 144 141 132 141 153 141 142 149 144 144 146 147 148 141 137 132 126 127 126 123 122 117 110 108 106 107 108 103 103 101 107 119 127 125 112 91 48 22 10 358 354 352 354 356 351 350 352 347 332 321 325 325 323 326 316 313 323 315 332 342 306 322 321 322 342 341 347 331
143 136 134 136 135 135 144 164 176 158 163 177 157 142 142 146 143 141 145 142 145 151 150 151 152 148 146 150 153 151 145 139 134 127 123 124 127 122 112 109 111 112 113 102 92 92 88 91 101 109 108 88 53 20 4 351 343 339 337 338 336 335 339 344 345 338 326 325 327 329 327 315 312 308 291 308 308 294 304 305 306 304 286 300 301
143 140 138 137 141 143 148 164 177 161 153 158 139 131 135 142 145 143 146 146 144 151 160 159 156 154 150 151 154 152 147 141 134 128 126 130 128 120 116 117 117 113 105 94 88 87 83 83 83 80 75 51 25 359 346 337 329 324 321 319 317 319 324 329 335 339 336 330 328 332 326 315 309 303 276 282 298 296 297 299 298 296 277 277 296
146 146 145 143 146 147 151 162 174 160 149 153 137 126 125 137 145 139 140 145 146 151 157 158 156 156 152 149 152 152 148 141 134 131 132 130 119 115 119 120 113 103 96 92 89 86 85 81 76 69 55 35 14 349 340 332 324 318 313 309 307 308 312 317 325 332 337 332 327 332 328 319 311 302 271 253 283 298 297 293 291 299 296 289 302
150 149 149 148 146 146 152 162 170 156 145 149 135 127 125 132 141 138 141 145 144 146 149 150 153 152 148 149 151 151 148 141 136 135 133 125 116 119 119 111 104 97 95 92 88 86 84 79 71 56 37 21 6 352 342 336 334 326 313 311 310 309 312 317 322 328 333 330 326 332 334 323 313 305 281 242 265 284 289 292 291 298 300 294 296
151 151 151 149 146 147 153 161 167 157 144 140 126 124 123 127 134 135 139 141 139 140 140 141 146 146 145 150 152 150 148 142 139 138 132 126 121 120 114 105 101 97 96 92 87 83 77 67 56 38 22 17 6 357 352 350 350 344 328 320 318 317 319 322 326 330 332 330 326 335 341 326 315 307 294 262 263 274 284 293 296 300 303 301 298
155 154 154 151 148 148 153 156 160 160 146 135 120 114 118 124 127 125 130 135 135 135 137 138 141 142 144 150 151 149 145 142 141 139 133 128 122 117 110 105 102 98 94 88 81 74 61 47 39 26 16 18 10 0 359 357 353 346 337 329 326 324 326 331 335 337 334 330 329 338 348 332 309 304 298 288 278 277 282 289 293 299 304 307 309
160 158 155 153 151 149 151 153 156 161 149 134 125 117 119 124 124 125 130 131 131 133 134 136 138 140 143 147 149 146 143 141 141 138 133 126 119 115 111 106 100 96 89 76 70 60 46 36 28 22 18 16 9 2 1 360 354 343 336 333 331 329 336 346 350 351 347 344 347 348 351 340 315 311 305 303 300 292 289 291 294 295 298 302 309
163 162 159 154 152 149 151 154 157 163 155 138 131 124 123 127 127 129 132 132 131 131 131 132 136 138 142 144 145 146 144 142 140 137 130 123 119 116 112 107 98 91 79 62 56 50 43 36 27 25 19 12 6 2 1 358 354 347 340 341 341 340 350 1 4 5 4 3 6 6 358 348 336 328 316 318 323 321 318 317 316 309 309 314 320
168 167 163 157 153 152 154 158 164 169 162 151 141 132 129 132 131 131 134 136 134 132 131 132 134 137 141 142 145 149 147 142 136 132 126 122 121 118 114 109 98 85 72 61 55 49 43 36 28 24 15 6 2 1 1 356 352 350 347 349 352 356 0 8 11 11 17 20 22 23 12 2 355 355 347 349 357 355 355 354 349 345 339 337 337
169 170 166 161 157 156 158 161 169 172 167 161 151 141 137 136 133 134 137 137 136 135 133 133 135 138 141 144 147 148 147 141 133 130 128 126 124 120 116 108 95 79 71 69 61 51 42 32 22 15 7 1 357 359 0 354 352 355 350 345 352 2 5 14 16 17 27 28 32 39 35 28 21 19 20 15 14 8 7 18 20 23 357 345 345
165 169 170 166 160 158 159 163 169 170 168 165 159 151 144 141 138 138 142 141 139 139 136 135 136 139 143 145 147 147 144 139 135 133 131 129 126 122 116 102 91 82 75 73 63 50 39 26 14 6 358 355 355 358 0 354 352 356 353 346 348 356 0 4 0 7 22 25 31 40 43 41 36 34 32 26 20 19 28 48 70 51 5 358 358
166 169 172 170 164 162 160 162 166 166 167 167 164 159 152 148 144 143 146 145 144 143 140 138 138 140 142 145 146 144 143 140 139 137 134 132 127 121 114 98 94 90 77 70 61 45 29 17 9 1 352 353 356 358 359 354 351 354 353 350 351 357 1 357 350 346 349 5 22 29 40 47 44 38 30 24 19 23 81 119 130 26 16 11 8
171 169 168 171 169 167 164 162 164 164 165 168 166 160 155 154 149 148 150 149 149 149 146 143 141 142 142 145 145 143 144 143 142 140 136 133 129 121 111 105 103 91 72 63 55 35 19 10 4 358 353 355 355 357 358 352 347 349 352 357 357 359 2 359 358 348 328 340 356 3 20 35 38 34 29 27 19 16 38 95 64 11 14 5 357
174 172 169 172 173 170 168 167 167 165 164 167 167 161 158 157 153 153 152 152 153 153 152 149 147 147 147 149 148 146 147 146 144 141 137 136 135 126 112 111 105 86 64 52 40 19 10 4 357 357 358 356 354 355 354 350 345 343 352 0 356 1 9 8 6 4 357 356 343 328 331 336 0 20 21 14 3 355 333 320 326 325 330 333 331
173 175 174 174 174 172 170 172 173 169 165 167 167 163 160 158 158 160 158 158 160 159 158 156 155 155 155 156 153 151 151 150 147 144 143 145 145 139 125 116 106 82 52 35 18 3 1 358 353 359 3 357 352 351 348 351 349 340 352 356 350 358 3 3 6 9 10 8 355 336 316 314 327 346 8 5 339 320 306 298 295 290 295 304 310
171 173 175 176 176 175 175 178 181 177 170 166 166 166 164 162 163 164 164 166 168 169 168 166 166 164 164 164 159 156 156 153 152 151 153 157 158 153 141 128 122 81 35 15 357 350 352 352 351 360 6 357 351 349 347 350 350 337 342 340 337 341 344 351 2 6 6 5 2 0 332 311 314 307 305 313 313 312 309 301 293 289 290 294 297
170 171 174 179 183 183 182 182 185 184 177 168 166 168 169 168 168 169 171 176 176 176 176 174 173 173 172 169 164 161 159 156 155 158 162 167 171 170 165 172 164 74 13 347 335 341 347 351 354 4 8 359 353 354 352 351 347 326 326 327 327 327 329 339 350 353 353 352 351 349 327 306 310 308 294 288 289 296 304 305 302 300 301 302 302
173 174 175 180 187 189 188 186 188 189 182 175 171 170 172 173 173 175 177 180 181 181 182 183 182 180 175 171 169 167 163 160 158 159 165 174 186 201 224 224 218 338 349 333 330 339 352 354 357 6 7 3 360 357 358 357 352 333 329 333 333 325 320 323 324 325 325 328 332 328 320 312 310 313 306 298 294 293 299 306 307 308 309 310 311
177 177 176 180 186 191 193 191 192 193 189 185 181 175 174 175 175 179 182 181 182 184 186 189 188 185 179 175 176 175 171 167 162 162 172 186 210 230 241 235 251 317 330 326 328 337 352 358 2 9 3 5 7 2 8 11 20 30 350 339 344 341 343 343 338 337 326 324 328 323 320 315 305 309 315 314 311 306 305 307 307 307 308 310 312
178 178 178 181 185 190 197 197 195 196 195 193 190 185 181 179 178 180 181 178 182 186 187 189 190 189 185 183 184 184 183 178 172 177 189 215 230 227 235 237 278 313 315 312 324 336 350 358 7 15 4 2 12 11 19 25 32 35 344 340 355 355 43 29 5 10 17 2 348 329 321 318 308 306 311 312 312 308 305 306 305 304 306 308 311
180 182 183 184 186 192 200 200 197 199 199 198 196 193 190 186 185 185 183 181 187 191 190 192 194 195 192 190 191 192 193 190 186 197 217 236 225 209 221 247 291 305 301 304 324 336 347 359 7 22 17 5 10 14 22 29 33 23 327 349 349 312 47 15 355 12 31 22 13 350 322 310 300 296 295 296 294 293 298 303 304 304 305 307 310
188 191 190 188 188 195 202 200 197 199 200 199 197 194 191 188 187 185 185 188 191 195 198 200 200 200 200 198 198 200 200 202 206 218 232 231 204 196 224 261 291 293 287 305 326 324 337 0 8 24 25 18 15 7 25 38 45 59 38 355 324 324 29 358 342 4 22 14 17 12 353 317 276 275 280 284 287 292 299 303 306 309 312 314 316
196 197 194 192 191 196 202 202 198 199 199 199 197 194 190 188 186 181 181 185 188 196 202 203 203 203 204 204 206 208 208 211 219 227 233 223 200 203 234 258 278 277 273 284 301 309 323 353 6 18 19 25 24 7 22 42 49 62 61 41 22 7 349 344 338 347 11 17 19 25 30 29 340 280 283 288 296 303 306 309 317 324 325 326 327
198 196 193 195 197 200 204 204 201 199 197 198 198 196 193 193 192 188 186 188 190 202 207 207 208 210 212 214 217 221 221 220 224 229 232 227 219 221 235 251 262 263 267 269 269 275 292 323 341 5 1 12 23 15 14 23 31 49 55 59 45 34 12 344 340 335 337 23 21 24 37 42 45 33 0 336 335 339 340 342 347 351 347 344 344
194 191 194 198 202 206 207 205 203 201 198 199 198 198 198 199 199 198 197 198 199 207 212 213 215 218 221 224 225 228 231 229 229 232 234 235 236 236 240 246 250 254 257 253 247 250 260 281 291 323 347 351 7 17 16 14 12 22 37 60 59 53 52 37 2 347 327 340 10 23 28 34 47 44 37 38 32 26 21 14 12 9 1 355 355
190 193 197 198 202 207 208 207 206 204 201 201 200 201 203 205 206 206 207 210 211 213 215 216 219 221 224 228 229 230 234 234 233 233 234 237 242 245 247 247 245 247 249 246 241 241 246 261 278 287 313 330 336 359 13 12 7 3 13 32 56 57 53 46 26 350 333 330 341 2 8 4 31 39 33 33 30 27 23 13 6 11 9 2 3
191 194 194 194 199 205 207 208 208 206 204 204 203 203 205 208 210 213 217 219 220 221 221 222 223 224 226 230 233 233 233 233 232 232 234 238 243 246 248 248 248 246 244 244 241 240 244 256 270 267 274 297 308 324 339 348 359 4 6 22 43 33 356 331 309 312 317 320 312 316 342 344 344 13 19 17 18 20 20 12 7 22 27 15 10
189 188 189 190 195 201 206 208 209 209 207 206 206 205 205 208 212 217 222 226 227 228 228 228 228 229 230 232 233 233 233 232 231 232 234 236 241 245 247 248 251 249 245 246 246 246 250 258 262 260 264 277 281 290 295 294 320 337 348 18 23 349 299 282 309 326 319 318 314 308 326 339 328 337 358 2 4 6 12 15 22 34 28 16 6
Height
822 820 822 823 823 823 824 825 826 827 828 829 829 830 830 831 831 832 832 834 835 835 838 836 833 833 833 833 833 833 833 834 834 835 836 836 837 837 838 839 839 840 841 842 843 844 845 846 846 846 846 846 848 850 852 852 853 853 852 851 851 851 851 851 852 852 852 852 852 852 853 853 853 854 854 854 854 854 855 855 855 855 856 856 857
821 822 823 824 824 824 826 826 827 828 828 829 829 830 831 831 832 833 833 835 835 835 838 836 834 834 834 834 834 834 835 835 836 836 837 838 838 839 839 840 841 842 842 843 845 845 847 847 847 847 847 848 849 852 852 852 853 854 854 854 853 852 852 853 853 853 853 853 853 854 854 854 854 855 855 855 856 856 856 856 856 856 857 857 858
822 823 823 824 825 825 827 827 828 828 829 829 830 830 831 832 833 834 834 836 835 836 838 836 835 835 835 835 835 835 836 836 837 838 839 839 840 841 841 842 842 843 844 845 846 847 848 849 848 848 848 849 851 851 851 851 853 854 853 855 855 854 854 854 855 855 855 855 855 855 855 856 856 856 857 857 857 857 857 857 858 858 858 859 859
823 824 825 825 826 827 828 829 829 829 830 830 831 831 832 833 833 834 836 837 835 837 839 837 836 835 835 835 836 836 837 838 839 839 840 840 841 842 842 843 843 844 845 846 847 848 849 850 851 851 851 851 852 851 851 853 854 854 853 854 856 855 856 856 856 856 856 856 856 856 857 857 857 858 858 858 858 858 858 859 859 859 859 860 860
824 825 826 827 827 828 829 829 830 830 831 831 832 832 833 833 834 835 837 837 837 839 840 837 836 836 836 836 837 837 838 839 840 841 841 842 842 843 844 844 845 846 847 847 848 849 850 851 851 852 854 855 854 853 854 854 854 855 854 855 856 857 857 857 857 857 857 857 857 858 858 858 859 859 859 859 859 860 860 860 860 860 861 861 861
825 826 827 828 828 829 829 830 831 831 831 832 833 833 834 835 836 837 837 839 839 840 838 836 836 836 837 837 838 839 840 841 841 842 842 843 844 844 845 845 846 847 848 849 850 850 851 851 851 853 856 858 857 856 855 854 854 855 856 856 856 858 858 859 859 859 858 858 859 859 859 860 860 860 860 860 860 861 861 861 861 862 862 862 862
825 827 828 828 829 829 830 831 832 832 831 832 834 836 836 838 838 838 840 841 840 838 836 836 836 837 838 838 839 840 841 842 843 843 844 845 845 845 846 847 848 849 849 850 851 851 852 853 853 854 856 858 859 857 856 856 855 855 857 857 857 858 859 860 859 859 859 859 860 860 861 861 861 861 862 862 862 862 862 862 862 863 863 863 863
826 827 828 829 830 831 831 832 832 833 832 833 836 838 839 839 839 840 842 842 839 837 837 837 837 838 839 840 841 842 842 843 844 844 845 846 847 847 847 848 849 850 850 851 852 852 854 855 856 856 857 860 860 859 858 858 858 858 858 859 859 859 860 860 860 860 860 861 861 862 862 862 862 862 863 863 863 863 863 863 863 863 864 864 864
827 828 829 830 831 832 833 833 834 834 834 835 837 839 841 841 841 842 843 841 839 837 837 837 838 839 839 840 842 843 844 844 845 845 846 847 848 848 849 849 850 851 851 852 853 853 854 856 857 858 859 861 861 860 860 859 860 860 860 861 861 860 861 861 861 861 862 862 862 863 863 863 863 863 864 864 864 864 864 864 864 864 864 864 865
828 829 830 831 832 833 834 835 836 836 837 838 839 841 842 842 842 843 842 840 839 838 837 838 839 840 841 842 843 844 845 845 846 846 847 849 850 850 850 850 851 851 852 853 853 854 855 856 858 858 860 862 861 861 861 861 861 861 862 862 862 862 861 862 862 862 863 863 864 864 864 864 864 864 865 865 865 865 865 864 864 864 865 865 865
828 829 831 832 833 834 834 836 836 837 838 839 840 842 842 842 842 842 841 839 839 839 838 839 840 841 842 843 844 845 846 846 847 847 848 850 851 851 851 851 852 852 852 853 854 855 856 857 858 858 861 862 861 861 861 861 862 862 863 863 863 862 862 863 863 863 864 864 865 865 865 865 865 865 865 866 866 865 865 865 865 865 865 865 865
829 830 831 833 834 835 835 836 836 837 837 838 839 840 841 841 841 840 840 839 838 839 840 841 841 842 843 845 846 846 848 848 849 849 850 851 852 852 852 852 852 853 853 854 855 856 857 858 859 860 861 861 860 860 861 861 862 863 863 863 863 863 863 863 864 865 865 865 866 866 866 866 866 866 866 866 866 866 866 866 866 866 866 866 866
830 831 832 834 834 836 836 836 836 836 836 837 838 838 839 839 840 839 839 838 838 840 841 842 843 844 845 846 847 848 849 850 850 851 851 852 853 854 853 853 853 853 854 855 855 856 858 858 859 860 861 861 861 861 861 862 862 863 863 863 864 864 864 864 865 865 866 866 867 867 867 867 866 867 867 867 867 867 867 867 867 866 867 866 867
831 832 833 835 836 837 837 837 836 835 836 837 837 837 838 838 838 838 839 839 839 841 842 844 844 845 846 848 848 849 850 851 851 852 853 853 854 855 855 855 854 854 855 856 856 857 858 859 860 861 861 861 861 861 862 862 862 863 863 864 864 865 865 865 866 866 867 867 867 868 868 867 867 867 868 868 868 867 867 867 867 867 867 867 867
832 833 834 836 836 838 837 837 835 835 837 837 837 837 837 837 838 838 839 839 841 842 843 845 846 847 849 850 851 851 852 852 852 852 854 854 855 856 856 856 856 856 856 857 858 858 859 860 861 861 861 862 862 862 863 863 863 864 864 865 865 866 866 866 867 867 868 868 868 868 868 868 868 868 868 868 868 868 868 868 868 868 868 868 868
833 834 835 837 838 838 838 836 834 836 838 837 836 836 837 837 837 838 839 840 842 843 845 847 847 849 850 850 851 852 853 853 853 853 854 855 856 857 857 857 857 857 858 858 859 860 860 861 862 862 862 862 863 863 864 864 864 865 865 866 866 866 867 867 867 868 868 868 869 869 869 869 868 868 868 868 868 868 868 868 868 868 868 868 868
833 835 836 838 839 839 837 834 833 836 837 836 836 835 836 837 838 839 840 841 842 844 847 848 847 848 849 849 851 853 853 853 854 854 855 856 856 857 857 858 858 858 859 859 860 860 861 862 862 862 863 863 864 865 865 865 865 866 866 867 867 867 867 867 868 868 869 869 869 869 870 869 869 869 869 869 869 869 869 869 869 869 869 869 869
835 836 838 839 840 840 837 833 833 835 836 836 835 835 836 838 839 839 840 842 843 846 848 849 847 847 849 850 851 852 853 854 854 855 856 856 857 858 858 858 859 859 860 860 861 861 862 862 863 863 863 864 865 865 866 866 866 866 867 867 868 868 868 868 869 869 869 869 869 869 870 869 869 869 869 869 869 869 869 869 869 869 869 869 869
836 837 838 840 840 840 837 832 833 836 836 835 835 836 837 838 839 840 841 842 844 846 849 849 848 848 849 851 852 852 854 854 855 856 857 857 858 858 859 859 860 860 861 861 861 862 862 863 863 864 864 865 865 866 866 866 867 867 867 868 868 868 868 869 869 869 869 869 869 870 870 869 869 869 869 869 869 869 869 869 869 869 869 869 869
836 838 839 840 841 841 837 833 834 836 836 835 835 836 838 839 839 841 842 843 845 847 848 849 850 850 850 852 853 853 854 855 856 857 858 859 859 859 860 860 861 861 862 862 862 862 863 863 864 864 865 865 866 866 867 867 867 867 867 868 868 868 868 869 869 869 869 869 869 869 869 869 869 869 869 869 869 869 869 869 869 869 869 870 870
837 838 839 840 841 841 838 834 835 836 835 834 836 837 838 839 840 841 843 844 846 847 847 849 850 851 852 853 854 854 855 856 857 859 859 860 860 860 860 861 861 862 862 863 863 863 863 864 864 865 865 866 866 867 867 867 867 867 867 867 868 868 869 869 869 869 869 869 869 869 869 868 869 869 869 869 869 869 869 869 869 869 870 870 870
837 838 839 840 841 842 839 836 836 837 835 835 837 837 839 840 841 842 843 845 846 846 848 850 850 851 853 853 854 855 856 857 858 859 861 861 861 861 862 862 862 863 863 863 864 864 864 864 865 865 866 866 867 867 867 867 867 867 867 867 868 868 869 868 869 869 869 869 869 869 868 868 869 869 869 869 869 869 869 869 869 870 870 870 870
836 838 839 840 841 842 840 837 837 838 836 836 837 838 840 840 841 843 844 846 846 846 848 850 851 852 853 854 855 856 857 858 858 860 861 862 862 862 863 863 863 864 864 864 864 864 865 865 865 866 867 867 867 867 868 868 868 867 867 868 868 868 868 868 868 869 869 869 869 868 868 868 868 868 869 869 869 869 869 869 869 870 870 870 870
836 838 839 840 841 841 840 838 838 839 838 837 838 839 840 841 841 843 844 846 847 847 848 850 851 852 854 855 856 857 858 858 859 860 861 862 863 863 864 864 864 865 865 865 865 865 865 866 866 867 867 868 868 868 869 869 868 868 868 868 868 868 868 868 868 869 869 868 868 868 868 868 868 868 869 869 869 869 869 869 869 870 870 870 870
836 838 839 840 841 841 840 839 838 839 839 838 839 840 841 841 842 843 844 845 847 848 848 850 851 852 853 855 856 858 859 859 860 861 862 862 863 864 864 865 865 865 865 865 866 866 866 867 867 868 868 869 869 869 869 869 869 869 869 869 868 868 868 868 868 868 868 868 868 868 868 868 868 868 868 869 869 869 869 869 869 869 869 870 870
836 837 838 840 841 841 841 839 839 840 840 839 840 841 841 842 842 843 844 845 847 848 849 850 851 852 853 855 857 858 859 860 861 861 862 863 863 864 864 865 865 866 866 866 866 866 867 868 868 869 869 869 870 870 870 870 869 869 869 868 868 868 868 868 868 868 868 868 868 867 868 868 868 868 868 868 869 869 869 869 869 869 869 870 870
836 837 838 840 840 841 841 840 839 840 841 840 840 842 842 842 843 844 845 845 847 848 849 850 851 852 854 855 857 858 859 860 861 862 863 863 864 865 865 865 866 866 866 867 867 867 868 868 869 869 870 870 870 870 870 870 869 868 868 868 868 868 868 868 868 868 868 868 868 867 868 868 868 868 868 868 869 869 869 869 869 870 870 870 870
835 837 838 839 840 841 841 840 839 840 841 841 841 842 843 843 844 845 845 846 847 849 850 850 852 853 854 856 857 858 860 861 862 863 864 864 865 865 865 866 866 866 867 867 868 868 869 869 869 870 870 870 870 870 870 869 868 868 868 868 867 867 867 868 868 868 868 868 868 867 867 867 867 867 868 868 868 869 869 869 869 869 869 869 869
835 837 838 839 840 841 841 841 840 840 841 841 842 842 843 844 845 846 846 847 849 849 851 852 853 854 855 856 858 859 860 861 862 863 864 865 865 865 866 866 866 867 867 868 868 869 869 869 869 870 870 870 870 870 869 869 868 868 867 867 867 867 867 867 868 868 868 868 868 867 867 867 867 867 868 868 868 868 869 869 869 869 869 869 868
835 836 838 839 840 841 842 841 841 840 841 842 843 843 844 845 846 847 847 848 849 850 851 853 854 855 856 857 858 859 861 862 863 863 864 865 865 865 866 866 867 867 868 869 869 869 869 869 870 870 870 870 870 869 869 868 868 867 867 867 867 867 867 867 868 868 868 868 868 867 867 867 867 867 868 868 868 868 869 869 869 869 869 868 868
835 836 837 839 840 841 842 842 842 841 841 842 843 844 845 845 846 847 848 849 850 851 852 854 855 856 857 858 859 860 861 862 863 864 864 865 865 866 866 867 868 868 869 869 869 869 869 870 870 870 870 870 870 869 868 868 867 867 867 867 867 867 867 868 868 868 868 868 868 867 867 867 867 868 868 868 868 868 868 868 868 868 868 868 868
834 836 837 838 840 841 842 842 842 842 842 843 844 845 846 846 847 848 849 851 851 852 853 855 855 857 858 859 860 861 862 862 863 864 865 866 866 867 867 868 869 869 869 869 869 869 870 870 870 870 870 870 870 869 868 868 867 867 867 867 867 867 868 868 868 868 868 868 868 868 867 867 867 868 868 868 868 868 868 868 868 868 868 868 868
834 835 837 838 840 841 842 843 843 843 843 843 844 846 847 847 848 849 850 851 852 853 854 856 856 858 859 860 861 861 862 863 864 865 865 866 867 868 868 869 869 869 870 870 870 870 870 870 871 870 870 870 870 869 869 868 868 867 867 867 867 868 868 868 868 868 868 868 868 868 868 868 868 868 868 868 868 868 868 868 868 868 868 868 867
833 835 837 838 840 841 842 843 844 844 844 845 845 846 847 848 849 850 851 852 853 854 855 856 857 858 859 860 861 862 863 863 864 865 866 867 868 868 869 869 870 870 870 870 870 870 870 871 871 871 871 870 870 870 869 868 868 868 868 868 868 868 868 868 869 869 869 869 868 868 868 868 868 868 868 868 868 868 868 868 868 868 867 867 867
832 834 836 838 839 841 842 843 844 845 845 846 846 846 848 848 850 850 851 852 853 854 855 856 858 858 860 860 861 862 863 864 865 865 866 867 868 869 869 870 870 870 870 870 870 871 871 871 871 871 871 871 870 870 869 868 868 868 868 868 868 868 868 869 869 869 869 869 869 869 869 869 869 869 869 869 869 868 868 868 868 868 867 867 867
832 833 836 837 839 840 842 843 844 845 846 847 847 847 848 849 850 851 852 853 854 855 856 857 858 859 860 861 862 863 863 864 865 866 867 868 869 869 870 870 870 870 870 870 871 871 871 872 871 871 871 871 870 870 869 869 868 868 868 868 868 868 868 868 868 869 869 869 869 869 869 869 869 869 869 869 869 869 868 868 868 868 867 867 867
831 833 835 837 838 840 841 843 844 845 847 848 848 848 849 850 850 851 852 853 855 856 857 858 859 860 861 861 862 863 864 865 866 866 867 868 869 869 870 870 870 870 870 871 871 871 872 872 872 871 871 870 870 870 869 869 868 868 868 868 868 868 868 868 868 868 869 868 869 869 869 869 869 869 869 869 869 869 869 868 868 868 867 867 867
830 832 834 836 838 839 841 843 844 845 847 848 849 850 850 851 852 852 853 854 855 857 857 858 859 860 861 862 863 864 865 865 866 867 868 868 869 869 870 870 870 871 871 871 871 872 872 872 872 872 871 871 870 870 869 869 869 868 868 868 868 868 868 868 868 868 868 868 868 869 869 869 869 869 869 869 869 869 869 868 868 868 867 867 866
830 832 834 836 837 839 840 842 843 845 847 848 849 850 851 852 853 854 854 855 856 857 858 859 860 861 862 863 863 864 865 866 867 867 868 869 869 870 870 870 871 871 871 872 872 872 872 872 872 872 871 871 870 870 869 869 868 868 868 868 868 868 868 868 868 868 868 868 868 868 868 868 868 869 869 869 869 869 869 868 868 867 867 866 866
829 831 833 835 836 838 840 841 843 844 846 848 850 851 852 853 854 855 855 856 857 857 858 859 860 861 862 863 864 865 866 866 867 868 868 869 869 870 870 871 871 871 872 872 872 872 872 872 872 872 871 871 871 870 869 868 868 868 868 868 868 868 868 868 867 867 867 867 867 868 868 868 868 868 868 868 868 868 868 868 867 867 866 865 865
828 830 832 834 836 837 839 841 842 844 845 847 849 851 852 853 854 855 856 857 858 858 859 860 861 862 862 863 864 865 866 867 867 868 869 869 870 870 871 871 871 872 872 872 873 872 872 872 872 872 871 871 871 870 869 868 868 868 868 868 867 867 867 867 867 867 867 867 866 867 867 867 867 867 867 867 867 867 867 867 866 866 865 865 864
827 829 831 833 835 836 838 840 841 843 845 846 848 850 851 852 854 855 856 857 858 859 860 861 861 862 863 863 864 865 866 867 868 868 869 869 870 870 871 871 871 872 872 872 872 872 872 872 872 872 872 871 871 870 870 869 868 868 868 868 867 867 866 866 867 867 866 866 865 865 865 865 866 866 866 866 866 866 866 865 865 865 864 864 863
826 829 830 832 834 836 837 839 840 842 844 845 847 849 850 852 853 854 856 857 858 859 860 860 861 862 863 864 864 865 866 867 868 868 869 869 870 870 871 871 872 872 872 872 872 872 872 872 872 872 872 872 871 871 870 869 869 869 868 869 869 868 867 866 866 866 865 865 865 864 864 864 865 865 865 865 865 865 865 865 864 864 864 863 862
826 827 829 831 832 834 836 837 839 841 843 845 846 848 850 851 853 854 855 856 857 858 860 860 861 862 863 864 864 865 866 867 868 868 869 869 870 870 871 871 871 872 872 872 872 872 873 873 873 873 872 872 872 871 870 869 869 869 869 870 869 869 871 868 865 865 865 865 864 864 863 863 864 864 864 864 864 864 864 864 863 863 863 862 861
824 825 827 829 831 833 834 836 838 840 842 844 846 847 849 851 852 853 855 856 857 858 859 860 861 862 863 864 864 865 866 867 868 868 869 869 870 870 870 871 871 871 872 872 872 872 873 873 873 873 873 872 872 872 871 870 870 869 869 870 870 872 872 867 865 866 865 864 864 863 862 862 862 863 863 863 863 863 863 862 862 862 861 861 860
822 823 825 828 830 831 833 835 837 839 841 843 845 847 848 850 851 852 854 855 856 858 858 860 861 862 863 863 864 865 866 867 867 868 869 869 869 870 870 871 871 871 872 872 872 872 873 873 873 873 873 873 872 872 871 871 870 870 869 869 870 872 870 867 868 868 865 864 864 864 863 862 862 862 862 862 862 862 862 861 861 861 860 860 859
820 822 824 827 828 830 832 834 836 838 840 842 844 846 847 849 850 851 853 854 855 856 857 859 860 861 862 863 864 865 865 866 867 868 868 869 869 870 870 871 871 871 871 872 872 873 873 873 873 873 873 873 872 872 872 871 871 870 870 870 869 869 869 869 869 869 869 867 864 864 863 862 862 862 862 862 862 862 861 861 860 860 859 859 858
819 821 823 825 827 829 831 833 835 837 839 841 842 845 846 848 849 851 852 853 854 856 857 858 859 860 862 863 864 864 865 866 867 867 868 869 869 869 870 870 871 871 871 872 872 872 873 873 873 873 873 873 873 872 872 872 871 871 870 870 870 869 869 869 869 869 870 869 866 864 864 863 863 863 862 862 862 861 861 860 860 860 859 859 858
817 819 821 823 825 828 830 832 834 836 837 839 841 843 845 847 849 850 851 852 854 855 856 857 858 859 861 862 863 864 864 865 866 867 867 868 869 869 870 870 871 871 871 872 872 872 872 872 873 873 873 873 873 873 872 872 872 871 871 870 870 870 870 870 869 868 867 869 868 864 863 863 863 863 863 862 862 861 861 860 860 860 859 859 858
815 817 820 822 824 826 829 830 832 834 836 838 840 842 844 845 847 849 850 851 853 854 855 856 857 858 860 861 862 863 863 864 865 866 867 868 868 869 869 870 870 871 871 872 872 872 872 872 873 873 873 873 873 873 873 872 872 872 871 871 871 870 870 869 869 868 867 867 867 864 863 863 862 863 863 862 862 862 861 860 860 860 859 859 858
814 817 819 821 823 825 827 829 831 833 835 837 838 840 842 844 845 847 849 850 851 853 854 855 856 857 858 859 861 862 862 863 864 865 866 867 868 868 869 870 870 870 871 871 872 872 872 872 872 872 872 872 872 872 872 872 872 872 871 871 871 871 870 869 868 868 867 866 866 864 863 864 863 863 863 863 862 862 861 861 860 860 860 859 859